Wind_Speed
18 17 18 20 20 20 21 21 21 20 20 19 21 22 22 23 23 23 24 23 24 24 24 24 25 25 26 26 27 27 28 28 29 29 29 29 29 30 30 29 29 29 30 31
19 19 19 20 21 21 21 22 22 22 22 22 22 22 23 23 23 24 24 24 25 25 25 26 26 26 26 27 28 28 28 29 29 30 30 30 30 31 31 30 30 31 31 32
20 20 21 21 19 20 21 21 22 23 22 23 23 23 24 24 24 24 25 25 26 26 26 27 27 28 28 29 29 29 29 29 30 31 31 31 31 31 31 31 32 32 33 33
21 21 21 20 19 20 21 21 22 23 24 24 24 25 25 25 25 26 26 26 26 27 27 28 29 30 30 31 31 30 30 30 31 32 32 33 33 33 33 33 34 34 34 34
23 23 23 22 22 22 22 22 23 24 25 25 25 26 26 26 27 27 27 28 28 28 29 30 30 30 31 31 31 31 31 32 32 33 33 33 34 34 34 34 35 35 36 36
24 25 25 24 24 24 24 24 24 24 25 26 27 27 27 28 29 29 29 29 29 29 30 31 31 31 31 31 32 32 33 33 34 34 34 34 35 35 36 36 36 36 37 37
26 26 26 26 26 26 27 27 26 26 27 27 28 29 29 30 30 31 31 31 31 31 31 32 32 32 32 32 33 33 34 34 35 34 34 35 35 36 37 37 37 37 37 37
27 28 28 28 29 29 29 29 29 29 29 29 30 30 31 31 31 31 32 32 32 32 32 33 33 33 33 33 33 34 34 35 35 35 35 36 37 37 37 37 38 38 38 37
30 30 30 30 30 31 31 32 31 31 31 32 31 31 32 32 33 32 32 33 33 33 33 33 34 34 34 34 34 34 35 36 36 36 36 37 38 38 37 37 37 38 38 37
31 31 31 31 32 32 33 33 33 33 34 34 33 32 32 33 32 32 33 33 33 33 33 33 33 34 34 34 34 34 35 36 36 36 36 37 38 38 38 38 38 37 37 37
32 32 33 33 33 34 34 35 35 35 35 35 34 34 34 34 33 33 33 33 33 33 33 33 33 33 34 34 34 35 35 35 35 36 36 37 37 37 37 37 37 36 36 36
33 33 34 34 34 35 35 35 36 36 36 36 36 36 35 34 34 34 34 33 33 33 34 34 34 34 34 34 34 35 36 36 36 36 37 37 37 37 37 37 37 36 36 36
33 34 34 34 35 35 35 35 36 36 36 36 35 35 35 34 35 35 35 34 34 34 34 35 35 35 35 35 36 36 36 36 37 37 37 37 37 37 37 37 37 36 36 35
34 34 34 34 34 34 35 35 35 36 35 35 35 35 35 35 35 36 36 35 35 35 34 34 34 35 35 36 36 36 36 36 36 36 36 37 37 37 37 37 37 37 36 35
33 34 33 33 34 34 34 34 34 34 34 34 34 34 35 35 35 36 36 35 35 35 35 35 35 35 35 35 35 35 36 36 36 35 35 36 36 37 37 37 37 36 36 35
32 32 32 33 33 33 34 33 33 33 33 33 34 34 35 35 35 35 35 36 36 36 36 36 36 36 36 36 35 35 35 35 35 35 35 36 36 35 35 35 35 34 34 34
32 32 32 32 32 32 32 32 33 33 33 33 34 34 35 35 35 35 35 36 36 36 36 36 36 36 36 35 35 35 34 35 34 34 34 34 34 34 34 34 34 34 34 35
32 31 31 31 31 31 31 32 32 33 33 33 34 34 34 34 34 34 34 35 35 36 36 36 35 35 34 34 34 34 34 34 34 34 34 33 33 33 34 34 35 35 35 35
31 31 31 32 32 32 32 32 32 32 33 32 32 33 33 33 33 33 34 34 34 35 34 34 34 33 33 33 33 34 34 34 35 35 35 35 35 35 35 35 35 35 35 35
31 32 32 32 32 32 31 31 31 31 32 32 32 33 33 33 33 33 33 33 33 33 33 33 33 33 33 33 33 33 34 34 34 35 35 35 35 35 35 35 35 35 35 35
31 31 32 32 31 31 31 31 31 31 32 32 32 33 33 33 33 33 33 33 32 32 32 32 32 33 33 33 34 34 34 34 34 35 35 34 34 35 35 36 35 35 35 35
31 31 31 31 31 31 31 31 32 32 32 32 32 33 33 33 33 33 33 32 32 32 32 32 33 33 33 34 35 35 34 34 34 33 33 33 33 34 34 35 35 35 35 34
31 31 31 31 32 32 32 33 33 33 33 33 33 32 33 33 33 33 33 32 32 32 32 32 33 33 33 34 34 34 34 33 33 32 32 32 33 34 34 35 34 34 34 33
32 32 32 32 32 32 32 32 33 33 33 33 32 33 33 33 33 33 33 32 32 33 33 33 33 33 33 33 33 33 33 33 32 32 32 33 34 34 34 34 33 33 33 32
32 32 32 32 32 32 32 32 32 32 32 32 32 32 33 32 32 32 32 32 32 33 33 33 33 33 32 32 32 32 32 32 32 32 33 33 33 33 33 32 32 31 31 30
33 33 33 33 33 32 32 32 32 32 32 32 32 32 32 32 31 31 31 32 32 33 33 33 33 33 32 32 31 30 31 31 31 31 31 32 31 31 30 30 30 30 30 29
33 33 32 33 33 32 32 32 31 31 31 31 32 32 32 32 32 32 32 33 33 33 33 33 32 31 30 30 30 30 29 29 29 29 30 30 29 29 29 29 29 29 28 27
Wind_Direction
282 280 277 275 275 278 280 281 283 284 284 284 283 284 283 281 279 280 280 281 281 282 284 285 284 285 285 284 285 285 285 285 283 282 283 283 283 284 283 283 284 283 284 285
282 283 281 277 277 278 283 283 284 285 285 285 285 285 284 284 282 281 282 283 284 282 283 283 283 284 284 284 285 285 285 285 284 283 284 283 282 283 282 282 284 284 285 285
283 282 281 280 281 280 283 283 284 286 287 286 287 288 287 286 285 284 284 284 284 283 282 282 283 283 284 285 286 285 284 284 284 285 284 283 284 284 284 284 284 285 285 285
282 282 280 284 283 283 283 284 285 286 288 288 287 287 287 287 285 285 285 285 285 284 283 283 283 283 284 286 286 286 286 285 284 285 285 284 284 283 283 284 286 286 285 285
281 281 282 283 285 286 285 286 287 288 287 287 287 287 287 286 285 285 285 286 286 285 284 284 285 285 284 285 286 286 286 286 286 285 284 284 284 283 284 285 285 286 285 285
281 282 283 285 284 285 285 286 288 288 286 286 287 287 287 286 286 285 286 285 285 285 285 284 285 286 286 285 285 285 285 286 287 287 286 286 286 284 284 285 285 284 285 285
281 282 284 286 286 286 285 286 288 287 287 287 288 288 288 287 286 286 286 286 285 286 285 285 285 286 286 286 286 285 285 285 287 287 287 286 286 285 284 284 285 285 284 284
280 281 283 285 285 284 284 285 288 288 288 288 288 287 287 287 287 287 286 286 286 286 286 285 285 286 287 287 287 287 286 286 287 287 288 287 286 286 285 285 285 285 284 284
280 282 283 284 284 285 284 285 287 288 288 288 288 287 286 287 287 287 287 287 287 287 287 285 285 285 286 287 288 288 288 288 288 288 288 289 288 286 285 285 286 285 284 283
281 282 282 282 282 282 283 285 286 286 287 287 287 287 287 286 287 287 287 288 289 289 288 287 286 286 286 287 288 289 289 288 288 288 288 289 288 287 286 286 286 284 283 283
282 282 282 281 281 282 283 285 286 287 287 287 286 286 286 285 285 286 287 288 289 289 288 289 288 288 288 288 288 288 289 289 288 288 289 290 289 288 288 288 286 286 285 285
282 282 282 281 281 282 283 284 285 286 285 286 286 287 286 285 285 286 286 287 288 288 288 289 289 288 288 287 286 287 288 289 289 289 288 289 289 289 288 288 287 286 286 286
281 282 283 284 284 284 284 284 285 286 286 285 285 285 286 286 286 287 287 288 288 289 289 288 288 288 287 287 287 287 288 289 289 289 289 289 289 289 289 288 288 288 287 286
281 283 284 285 286 287 287 286 286 286 286 286 285 285 285 286 286 287 288 289 289 289 289 289 290 290 289 289 288 289 289 289 289 289 289 290 290 288 288 288 288 288 287 286
283 285 286 286 287 287 287 287 287 286 286 285 285 285 286 287 287 288 289 289 289 289 290 290 290 291 291 290 290 290 290 290 289 289 289 290 290 289 289 288 288 287 286 285
283 286 287 288 288 288 288 288 287 286 285 285 285 285 285 287 287 287 287 288 289 290 290 291 291 292 292 293 292 291 291 290 290 289 289 289 290 290 290 290 289 286 285 284
284 285 287 288 289 289 289 289 289 288 287 286 285 285 285 285 285 286 287 288 289 290 290 292 292 292 292 293 293 292 292 292 291 291 291 292 291 291 291 291 290 287 286 286
285 286 288 289 290 290 289 290 290 290 289 288 287 286 286 285 285 286 287 289 290 290 291 291 292 292 292 292 293 294 294 294 294 293 292 292 292 292 292 291 290 289 288 287
286 286 288 290 290 290 290 290 291 291 291 290 289 288 288 288 287 287 289 290 290 290 290 291 291 291 291 292 294 295 296 295 294 294 294 294 294 293 292 292 291 291 290 289
287 288 289 290 290 290 290 291 291 292 291 291 289 288 288 289 289 290 291 292 291 291 290 291 291 291 292 293 294 296 296 296 296 295 295 295 295 294 294 293 292 292 291 291
289 289 290 290 290 290 290 291 292 292 292 292 291 290 290 290 291 291 292 292 292 292 292 293 293 292 293 294 295 295 296 296 296 296 297 296 295 295 295 295 295 294 293 292
292 291 291 290 291 290 290 291 291 292 293 292 291 290 290 291 291 292 293 293 293 294 295 295 295 294 294 294 295 295 296 296 296 296 297 297 296 296 296 296 295 294 294 293
293 293 292 291 291 290 291 291 291 292 293 293 292 291 291 292 292 292 292 292 292 293 294 295 295 295 295 295 295 295 295 296 296 296 296 297 296 296 297 296 295 294 293 293
293 293 293 292 292 291 291 290 291 292 293 293 292 292 292 292 292 292 292 292 292 293 294 295 295 296 296 296 296 296 296 296 296 296 297 297 297 297 297 297 296 294 293 292
294 294 293 292 291 291 291 290 290 291 292 292 292 292 293 294 293 292 292 292 293 294 294 295 295 296 295 296 296 297 297 297 297 297 298 299 299 298 298 297 296 295 294 292
293 293 293 293 292 291 291 290 290 291 292 292 292 292 294 294 293 293 294 294 295 295 296 296 296 296 295 295 295 296 297 298 299 300 300 301 300 300 299 298 297 296 295 293
293 293 293 292 292 292 292 291 291 291 292 291 291 291 291 292 292 293 295 296 297 296 296 297 297 296 295 295 296 297 298 300 300 301 302 302 302 301 300 299 298 298 296 293
Height
5804 5803 5802 5802 5802 5801 5800 5799 5799 5799 5798 5798 5795 5794 5793 5791 5790 5789 5788 5787 5785 5784 5783 5781 5780 5778 5777 5775 5773 5772 5770 5769 5768 5766 5765 5764 5762 5761 5760 5759 5758 5756 5755 5753
5799 5799 5797 5797 5797 5796 5795 5794 5793 5792 5792 5791 5789 5788 5786 5785 5784 5783 5781 5780 5779 5777 5776 5775 5773 5771 5769 5768 5766 5764 5762 5761 5759 5758 5757 5755 5754 5753 5751 5750 5749 5747 5746 5744
5794 5793 5792 5792 5793 5792 5790 5789 5788 5786 5787 5785 5783 5782 5780 5779 5777 5776 5775 5773 5772 5771 5769 5767 5766 5764 5762 5760 5758 5756 5754 5752 5751 5749 5748 5746 5745 5743 5742 5741 5739 5738 5736 5734
5788 5788 5787 5789 5787 5786 5784 5783 5782 5780 5779 5778 5777 5775 5773 5772 5770 5769 5767 5766 5764 5763 5761 5760 5758 5756 5754 5752 5750 5748 5746 5744 5742 5740 5739 5737 5735 5734 5733 5731 5730 5728 5726 5724
5782 5781 5781 5782 5781 5779 5778 5777 5775 5774 5772 5771 5769 5768 5767 5765 5763 5761 5760 5758 5756 5755 5753 5751 5749 5747 5745 5743 5741 5739 5737 5735 5733 5731 5729 5727 5726 5724 5723 5721 5719 5717 5715 5713
5776 5775 5774 5776 5774 5772 5772 5770 5769 5767 5765 5764 5762 5761 5760 5757 5755 5754 5752 5750 5748 5746 5745 5743 5741 5739 5737 5735 5733 5730 5728 5726 5724 5722 5719 5718 5716 5714 5712 5710 5708 5706 5704 5702
5769 5768 5768 5768 5767 5766 5765 5764 5761 5759 5757 5756 5754 5753 5752 5749 5747 5745 5743 5741 5740 5738 5736 5734 5731 5729 5728 5726 5723 5721 5719 5717 5714 5712 5710 5708 5705 5703 5701 5699 5697 5695 5693 5691
5763 5761 5763 5760 5759 5758 5756 5754 5753 5751 5749 5747 5746 5744 5742 5740 5738 5736 5734 5732 5730 5728 5726 5724 5722 5720 5718 5716 5714 5711 5709 5707 5704 5702 5699 5697 5695 5692 5690 5688 5685 5683 5681 5679
5756 5756 5753 5751 5750 5748 5747 5745 5744 5742 5740 5739 5737 5735 5733 5731 5729 5727 5725 5723 5721 5719 5717 5714 5712 5710 5708 5706 5703 5701 5699 5696 5694 5691 5689 5686 5683 5681 5678 5676 5674 5671 5669 5667
5746 5746 5744 5743 5741 5739 5738 5736 5735 5733 5731 5729 5728 5726 5724 5722 5720 5718 5716 5714 5712 5709 5707 5705 5702 5700 5698 5695 5693 5691 5688 5686 5683 5681 5678 5675 5672 5669 5667 5664 5662 5659 5657 5655
5737 5737 5735 5733 5731 5730 5728 5726 5725 5723 5721 5719 5718 5716 5714 5712 5710 5709 5706 5704 5702 5700 5697 5695 5692 5690 5688 5685 5683 5681 5678 5675 5672 5670 5667 5664 5661 5658 5656 5653 5650 5648 5646 5644
5728 5726 5724 5723 5722 5720 5718 5716 5715 5713 5711 5709 5707 5706 5704 5702 5700 5699 5697 5695 5692 5690 5687 5685 5683 5680 5677 5675 5672 5670 5667 5665 5662 5659 5656 5653 5650 5647 5644 5642 5639 5636 5634 5632
5717 5715 5713 5713 5711 5709 5708 5706 5704 5702 5700 5699 5697 5695 5694 5692 5690 5688 5686 5685 5682 5680 5678 5675 5672 5670 5667 5664 5662 5659 5656 5654 5651 5648 5645 5642 5639 5636 5634 5631 5628 5626 5623 5621
5707 5705 5704 5703 5701 5699 5697 5695 5694 5692 5690 5688 5687 5685 5684 5682 5680 5678 5676 5674 5672 5670 5667 5664 5662 5659 5656 5654 5651 5648 5645 5643 5640 5637 5634 5631 5628 5625 5622 5620 5618 5615 5612 5610
5697 5695 5694 5693 5691 5689 5687 5685 5683 5682 5680 5678 5677 5675 5673 5672 5670 5668 5666 5664 5661 5659 5656 5654 5651 5648 5645 5643 5640 5637 5634 5632 5629 5626 5623 5620 5617 5614 5611 5608 5606 5604 5601 5599
5688 5686 5685 5683 5681 5679 5677 5675 5673 5671 5670 5668 5666 5665 5663 5661 5659 5657 5655 5653 5650 5648 5646 5643 5640 5637 5634 5632 5629 5626 5623 5620 5618 5615 5612 5609 5606 5603 5600 5597 5595 5593 5591 5588
5678 5677 5675 5674 5672 5670 5668 5665 5663 5661 5659 5658 5656 5654 5652 5650 5649 5646 5644 5642 5639 5637 5634 5632 5629 5626 5623 5621 5618 5615 5613 5610 5607 5604 5601 5598 5595 5593 5590 5587 5585 5582 5580 5577
5669 5667 5665 5664 5662 5660 5658 5656 5654 5652 5650 5648 5646 5644 5642 5640 5638 5636 5634 5631 5629 5626 5624 5621 5618 5615 5613 5610 5608 5605 5602 5600 5597 5594 5591 5588 5585 5582 5579 5577 5574 5571 5568 5566
5659 5658 5656 5655 5653 5651 5649 5647 5645 5642 5640 5638 5636 5634 5632 5630 5627 5625 5623 5621 5618 5616 5613 5610 5608 5605 5603 5600 5598 5595 5592 5589 5586 5583 5580 5578 5575 5572 5569 5566 5563 5560 5557 5554
5651 5649 5647 5645 5643 5641 5640 5637 5635 5633 5631 5628 5626 5624 5622 5620 5617 5615 5613 5610 5607 5605 5603 5600 5598 5596 5593 5590 5588 5585 5582 5579 5576 5573 5570 5567 5564 5561 5558 5555 5552 5549 5546 5543
5642 5640 5638 5636 5634 5632 5630 5628 5626 5624 5621 5619 5617 5614 5612 5610 5608 5605 5603 5600 5598 5595 5593 5591 5588 5586 5583 5580 5578 5575 5572 5569 5565 5562 5559 5556 5553 5550 5547 5544 5541 5538 5535 5532
5633 5631 5629 5627 5625 5623 5621 5619 5617 5615 5612 5609 5607 5605 5602 5600 5598 5596 5593 5590 5588 5585 5583 5581 5578 5575 5573 5570 5567 5564 5561 5558 5555 5552 5549 5546 5543 5540 5537 5534 5531 5528 5525 5522
5624 5622 5620 5618 5616 5614 5612 5610 5607 5605 5603 5600 5597 5595 5593 5590 5588 5585 5583 5581 5578 5576 5573 5571 5568 5565 5562 5559 5556 5554 5551 5548 5545 5542 5539 5536 5532 5529 5526 5523 5520 5517 5514 5511
5615 5612 5610 5608 5606 5604 5602 5600 5598 5595 5593 5590 5588 5585 5583 5581 5578 5575 5573 5571 5568 5566 5563 5560 5558 5555 5552 5549 5546 5543 5541 5538 5535 5532 5529 5526 5522 5519 5516 5513 5510 5507 5504 5501
5605 5603 5601 5599 5597 5595 5593 5591 5589 5586 5584 5581 5579 5576 5573 5571 5568 5566 5563 5561 5558 5556 5553 5550 5547 5544 5542 5539 5536 5534 5531 5528 5525 5522 5519 5516 5512 5509 5506 5503 5500 5497 5494 5491
5596 5594 5592 5589 5587 5585 5583 5581 5579 5577 5574 5572 5569 5567 5564 5561 5559 5556 5554 5551 5548 5546 5543 5540 5537 5535 5532 5530 5527 5524 5522 5519 5516 5513 5509 5506 5503 5500 5496 5493 5490 5487 5484 5482
5587 5584 5582 5580 5578 5576 5574 5571 5569 5567 5564 5562 5560 5557 5555 5552 5550 5547 5544 5542 5539 5536 5533 5531 5528 5525 5522 5520 5518 5515 5513 5510 5507 5504 5501 5498 5494 5491 5487 5484 5481 5478 5475 5473